Location: Dallas
(32.7833°N, 96.8000°W)
Time: 09:32:21
(UTC-06:00)

Envisat - Pass Details

Date: 25 October 2019
Orbit: 764 x 766 km, 98.1° (Epoch: 22 November)

Event Time Altitude Azimuth Distance (km) Brightness Sun altitude
Rises 21:01:48 0° 217° (SW) 3,219 6.6 -29.8°
Reaches altitude 10° 21:05:58 10° 250° (WSW) 2,299 6.2 -30.6°
Maximum altitude 21:07:30 11° 268° (W) 2,211 6.2 -31.0°
Drops below altitude 10° 21:09:02 10° 286° (WNW) 2,303 6.3 -31.3°
Sets 21:13:14 0° 320° (NW) 3,235 6.8 -32.2°
